#timestamp,LO_Frequency,Hit,Temp,Hum 
1480183215.3,286047009.8,N,0.0,0.0
1480183235.1,286047010.6,N,0.0,0.0
1480183255.9,286047007.9,N,0.0,0.0
1480183275.7,286047008.3,N,0.0,0.0
1480183295.5,286047008.9,N,0.0,0.0
1480183315.4,286047007.9,N,0.0,0.0
1480183335.2,286047008.6,N,0.0,0.0
1480183355.1,286047007.9,N,0.0,0.0
1480183356.0,286047007.9,N,0.0,0.0
1480183375.8,286047010.7,N,0.0,0.0
1480183395.6,286047007.8,N,0.0,0.0
1480183415.5,286047012.0,N,0.0,0.0
1480183435.3,286047012.1,N,0.0,0.0
1480183455.1,286047013.9,N,0.0,0.0
1480183475.9,286047011.3,N,0.0,0.0
1480183495.7,286047013.4,N,0.0,0.0
1480183515.6,286047011.0,N,0.0,0.0
1480183535.4,286047013.5,N,0.0,0.0
1480183555.2,286047010.9,N,0.0,0.0
1480183575.1,286047012.8,N,0.0,0.0
1480183576.0,286047012.8,N,0.0,0.0
1480183595.8,286047015.3,N,0.0,0.0
1480183615.6,286047014.5,N,0.0,0.0
1480183635.5,286047014.7,N,0.0,0.0
1480183655.3,286047014.4,N,0.0,0.0
1480183675.2,286047016.8,N,0.0,0.0
1480183695.9,286047016.9,N,0.0,0.0
1480183715.7,286047016.9,N,0.0,0.0
1480183735.6,286047016.3,N,0.0,0.0
1480183755.4,286047014.1,N,0.0,0.0
1480183775.3,286047017.0,N,0.0,0.0
1480183795.1,286047016.7,N,0.0,0.0
1480183796.0,286047016.7,N,0.0,0.0
1480183815.8,286047014.2,N,0.0,0.0
1480183835.7,286047014.9,N,0.0,0.0
1480183855.5,286047015.1,N,0.0,0.0
1480183875.3,286047015.0,N,0.0,0.0
1480183895.2,286047015.4,N,0.0,0.0
1480183915.0,286047014.5,N,0.0,0.0
1480183915.9,286047014.5,N,0.0,0.0
1480183935.8,286047014.5,N,0.0,0.0
1480183955.6,286047016.9,N,0.0,0.0
1480183975.4,286047016.7,N,0.0,0.0
1480183995.3,286047016.7,N,0.0,0.0
1480184015.1,286047014.3,N,0.0,0.0
1480184035.9,286047015.3,N,0.0,0.0
1480184055.7,286047014.5,N,0.0,0.0
1480184075.5,286047014.8,N,0.0,0.0
1480184095.4,286047014.7,N,0.0,0.0
1480184115.2,286047014.7,N,0.0,0.0
1480184135.0,286047015.4,N,0.0,0.0
1480184135.9,286047015.4,N,0.0,0.0
1480184155.8,286047012.9,N,0.0,0.0
1480184175.6,286047014.9,N,0.0,0.0
1480184195.5,286047014.1,N,0.0,0.0
1480184215.3,286047017.1,N,0.0,0.0
1480184235.1,286047017.0,N,0.0,0.0
1480184255.9,286047016.8,N,0.0,0.0
1480184275.7,286047017.0,N,0.0,0.0
1480184295.5,286047016.9,N,0.0,0.0
1480184315.4,286047016.0,N,0.0,0.0
1480184335.2,286047016.3,N,0.0,0.0
1480184355.1,286047016.0,N,0.0,0.0
1480184356.0,286047016.0,N,0.0,0.0
1480184375.8,286047018.8,N,0.0,0.0
1480184395.6,286047015.7,N,0.0,0.0
1480184415.5,286047016.1,N,0.0,0.0
1480184435.3,286047015.7,N,0.0,0.0
1480184455.2,286047015.9,N,0.0,0.0
1480184475.9,286047015.8,N,0.0,0.0
1480184495.7,286047018.8,N,0.0,0.0
1480184515.6,286047018.5,N,0.0,0.0
1480184535.4,286047018.1,N,0.0,0.0
1480184555.2,286047015.7,N,0.0,0.0
1480184575.1,286047015.9,N,0.0,0.0
1480184576.0,286047015.9,N,0.0,0.0
1480184595.8,286047016.2,N,0.0,0.0
1480184615.7,286047016.0,N,0.0,0.0
1480184635.5,286047016.8,N,0.0,0.0
1480184655.3,286047016.3,N,0.0,0.0
1480184675.2,286047018.2,N,0.0,0.0
1480184695.9,286047017.8,N,0.0,0.0
1480184715.7,286047018.2,N,0.0,0.0
1480184735.6,286047018.1,N,0.0,0.0
1480184755.4,286047018.7,N,0.0,0.0
1480184775.3,286047018.7,N,0.0,0.0
1480184795.1,286047015.7,N,0.0,0.0
1480184796.0,286047015.7,N,0.0,0.0
1480184815.8,286047015.9,N,0.0,0.0
1480184835.7,286047018.2,N,0.0,0.0
1480184855.5,286047018.7,N,0.0,0.0
1480184875.4,286047015.7,N,0.0,0.0
1480184895.2,286047016.2,N,0.0,0.0
1480184915.0,286047016.2,N,0.0,0.0
1480184915.9,286047016.2,N,0.0,0.0
1480184935.8,286047016.2,N,0.0,0.0
1480184955.6,286047018.4,N,0.0,0.0
1480184975.4,286047018.4,N,0.0,0.0
1480184995.3,286047018.7,N,0.0,0.0
1480185015.1,286047018.3,N,0.0,0.0
1480185035.9,286047017.9,N,0.0,0.0
1480185055.7,286047017.8,N,0.0,0.0
1480185075.5,286047020.3,N,0.0,0.0
1480185095.4,286047020.4,N,0.0,0.0
1480185115.2,286047017.3,N,0.0,0.0
1480185135.0,286047020.4,N,0.0,0.0
1480185135.9,286047020.4,N,0.0,0.0
1480185155.8,286047017.4,N,0.0,0.0
1480185175.6,286047017.3,N,0.0,0.0
1480185195.5,286047017.3,N,0.0,0.0
1480185215.3,286047020.4,N,0.0,0.0
1480185235.1,286047017.4,N,0.0,0.0
1480185255.9,286047017.3,N,0.0,0.0
1480185275.7,286047020.0,N,0.0,0.0
1480185295.6,286047020.0,N,0.0,0.0
1480185315.4,286047020.2,N,0.0,0.0
1480185335.2,286047020.0,N,0.0,0.0
1480185355.1,286047020.2,N,0.0,0.0
1480185356.0,286047020.2,N,0.0,0.0
1480185375.8,286047019.6,N,0.0,0.0
1480185395.6,286047019.6,N,0.0,0.0
1480185415.5,286047019.0,N,0.0,0.0
1480185435.3,286047019.4,N,0.0,0.0
1480185455.2,286047019.4,N,0.0,0.0
1480185475.9,286047021.9,N,0.0,0.0
1480185495.7,286047021.5,N,0.0,0.0
1480185515.6,286047021.8,N,0.0,0.0
1480185535.4,286047021.3,N,0.0,0.0
1480185555.2,286047020.7,N,0.0,0.0
1480185575.1,286047020.8,N,0.0,0.0
1480185576.0,286047020.8,N,0.0,0.0
1480185595.8,286047020.8,N,0.0,0.0
1480185615.7,286047020.8,N,0.0,0.0
1480185635.5,286047023.0,N,0.0,0.0
1480185655.3,286047023.0,N,0.0,0.0
1480185675.2,286047023.2,N,0.0,0.0
1480185695.0,286047024.0,N,0.0,0.0
1480185695.9,286047024.0,N,0.0,0.0
1480185715.8,286047027.8,N,0.0,0.0
1480185735.6,286047028.8,N,0.0,0.0
1480185755.4,286047030.9,N,0.0,0.0
1480185775.3,286047032.4,N,0.0,0.0
1480185795.1,286047033.8,N,0.0,0.0
1480185815.8,286047038.0,N,0.0,0.0
1480185835.7,286047038.0,N,0.0,0.0
1480185855.5,286047036.8,N,0.0,0.0
1480185875.4,286047039.5,N,0.0,0.0
1480185895.2,286047036.4,N,0.0,0.0
1480185915.0,286047034.7,N,0.0,0.0
1480185915.9,286047034.7,N,0.0,0.0
1480185935.8,286047032.4,N,0.0,0.0
1480185955.6,286047031.7,N,0.0,0.0
1480185975.5,286047031.7,N,0.0,0.0
1480185995.3,286047032.6,N,0.0,0.0
1480186015.1,286047032.1,N,0.0,0.0
1480186035.9,286047032.3,N,0.0,0.0
1480186055.7,286047032.3,N,0.0,0.0
1480186075.5,286047030.1,N,0.0,0.0
1480186095.4,286047032.9,N,0.0,0.0
1480186115.2,286047032.8,N,0.0,0.0
1480186135.1,286047032.8,N,0.0,0.0
1480186136.0,286047032.8,N,0.0,0.0
1480186155.8,286047032.9,N,0.0,0.0
1480186175.6,286047030.3,N,0.0,0.0
1480186195.5,286047030.1,N,0.0,0.0
1480186215.3,286047033.2,N,0.0,0.0
1480186235.2,286047030.6,N,0.0,0.0
1480186255.9,286047028.5,N,0.0,0.0
1480186275.7,286047028.8,N,0.0,0.0
1480186295.6,286047027.1,N,0.0,0.0
1480186315.4,286047027.6,N,0.0,0.0
1480186335.2,286047026.1,N,0.0,0.0
1480186355.1,286047024.1,N,0.0,0.0
1480186356.0,286047024.1,N,0.0,0.0
1480186375.8,286047025.0,N,0.0,0.0
1480186395.7,286047023.3,N,0.0,0.0
1480186415.5,286047021.2,N,0.0,0.0
1480186435.3,286047021.4,N,0.0,0.0
1480186455.2,286047020.1,N,0.0,0.0
1480186475.0,286047020.4,N,0.0,0.0
1480186475.9,286047020.4,N,0.0,0.0
1480186495.8,286047020.4,N,0.0,0.0
1480186515.6,286047018.4,N,0.0,0.0
1480186535.4,286047018.2,N,0.0,0.0
1480186555.3,286047015.7,N,0.0,0.0
1480186575.1,286047014.2,N,0.0,0.0
1480186595.8,286047015.2,N,0.0,0.0
1480186615.7,286047013.2,N,0.0,0.0
1480186635.5,286047013.4,N,0.0,0.0
1480186655.4,286047011.2,N,0.0,0.0
1480186675.2,286047009.3,N,0.0,0.0
1480186695.0,286047010.3,N,0.0,0.0
1480186695.9,286047010.3,N,0.0,0.0
1480186715.8,286047007.8,N,0.0,0.0
1480186735.6,286047008.5,N,0.0,0.0
1480186755.5,286047006.2,N,0.0,0.0
1480186775.3,286047006.4,N,0.0,0.0
1480186795.1,286047007.5,N,0.0,0.0
